Voltar ao catálogo

STARLINK-30229

AtivoComunicaçõesVLEO
NORAD 57461·PAYLOAD·🇺🇸 United States

Lançado Jul 28, 2023 de Cape Canaveral Space Force Station

Loading…

Próximas Passagens (próximas 24 horas)

TLE

AtualizadoSource: CelesTrak SupGP

Época: Sep 15, 2026, 01:37 UTC

1 57461C 23107E   26258.06784722  .00015824  00000+0  57303-3 0  2583
2 57461  43.0040 354.0052 0001803 268.9308  74.8665 15.27576737    10

Acompanhe STARLINK-30229 em tempo real com AllMySat

Download on the App Store